Time,TemperatureF,DewpointF,PressureIn,WindDirection,WindDirectionDegrees,WindSpeedMPH,WindSpeedGustMPH,Humidity,HourlyPrecipIn,Conditions,Clouds,dailyrainin,SoftwareType,DateUTC
2017-06-27 00:04:00,62.1,54.0,29.95,NNE,23,0.0,-999.0,75,0.00,,,0.00,,2017-06-27 07:04:00,
2017-06-27 00:09:00,61.9,54.0,29.95,WNW,293,0.0,-999.0,75,0.00,,,0.00,,2017-06-27 07:09:00,
2017-06-27 00:14:00,61.7,54.0,29.95,WNW,293,0.0,-999.0,75,0.00,,,0.00,,2017-06-27 07:14:00,
2017-06-27 00:19:00,61.5,53.0,29.95,West,270,0.0,-999.0,75,0.00,,,0.00,,2017-06-27 07:19:00,
2017-06-27 00:24:00,61.3,53.0,29.94,NNW,338,0.0,-999.0,75,0.00,,,0.00,,2017-06-27 07:24:00,
2017-06-27 00:29:00,61.1,53.0,29.95,NNW,338,0.0,-999.0,75,0.00,,,0.00,,2017-06-27 07:29:00,
2017-06-27 00:34:00,61.0,53.0,29.94,West,270,0.0,-999.0,76,0.00,,,0.00,,2017-06-27 07:34:00,
2017-06-27 00:39:00,60.7,53.0,29.95,North,0,0.0,-999.0,78,0.00,,,0.00,,2017-06-27 07:39:00,
2017-06-27 00:44:00,60.3,53.0,29.95,West,270,0.0,-999.0,78,0.00,,,0.00,,2017-06-27 07:44:00,
2017-06-27 00:49:00,60.2,53.0,29.94,West,270,0.0,-999.0,78,0.00,,,0.00,,2017-06-27 07:49:00,
2017-06-27 00:54:00,60.2,53.0,29.94,ESE,113,0.0,-999.0,78,0.00,,,0.00,,2017-06-27 07:54:00,
2017-06-27 00:59:00,60.0,53.0,29.95,NNE,23,0.0,-999.0,78,0.00,,,0.00,,2017-06-27 07:59:00,
2017-06-27 01:04:00,59.9,53.0,29.94,West,270,0.0,-999.0,79,0.00,,,0.00,,2017-06-27 08:04:00,
2017-06-27 01:09:00,59.7,52.0,29.94,South,180,0.0,-999.0,78,0.00,,,0.00,,2017-06-27 08:09:00,
2017-06-27 01:14:00,59.7,53.0,29.94,NW,315,0.0,-999.0,79,0.00,,,0.00,,2017-06-27 08:14:00,
2017-06-27 01:19:00,59.2,53.0,29.94,North,0,0.0,-999.0,80,0.00,,,0.00,,2017-06-27 08:19:00,
2017-06-27 01:24:00,59.2,53.0,29.94,North,0,0.0,-999.0,80,0.00,,,0.00,,2017-06-27 08:24:00,
2017-06-27 01:29:00,59.0,52.0,29.94,West,270,0.0,-999.0,80,0.00,,,0.00,,2017-06-27 08:29:00,
2017-06-27 01:34:00,58.8,52.0,29.94,NW,315,0.0,-999.0,81,0.00,,,0.00,,2017-06-27 08:34:00,
2017-06-27 01:39:00,58.5,52.0,29.94,NNE,23,0.0,-999.0,80,0.00,,,0.00,,2017-06-27 08:39:00,
2017-06-27 01:44:00,58.4,52.0,29.94,NNE,23,0.0,-999.0,81,0.00,,,0.00,,2017-06-27 08:44:00,
2017-06-27 01:49:00,58.0,52.0,29.94,NW,315,0.0,-999.0,81,0.00,,,0.00,,2017-06-27 08:49:00,
2017-06-27 01:54:00,58.0,52.0,29.94,South,180,0.0,-999.0,81,0.00,,,0.00,,2017-06-27 08:54:00,
2017-06-27 01:59:00,57.8,52.0,29.94,NW,315,0.0,-999.0,81,0.00,,,0.00,,2017-06-27 08:59:00,
2017-06-27 02:04:00,57.8,52.0,29.94,NW,315,0.0,-999.0,81,0.00,,,0.00,,2017-06-27 09:04:00,
2017-06-27 02:09:00,57.7,52.0,29.94,NW,315,0.0,-999.0,81,0.00,,,0.00,,2017-06-27 09:09:00,
2017-06-27 02:14:00,57.5,52.0,29.94,NNW,338,0.0,-999.0,83,0.00,,,0.00,,2017-06-27 09:14:00,
2017-06-27 02:19:00,57.3,52.0,29.95,NNW,338,0.0,-999.0,83,0.00,,,0.00,,2017-06-27 09:19:00,
2017-06-27 02:24:00,57.2,52.0,29.94,West,270,0.0,-999.0,83,0.00,,,0.00,,2017-06-27 09:24:00,
2017-06-27 02:29:00,56.7,52.0,29.94,NNE,23,0.0,-999.0,83,0.00,,,0.00,,2017-06-27 09:29:00,
2017-06-27 02:34:00,56.7,51.0,29.94,West,270,0.0,-999.0,83,0.00,,,0.00,,2017-06-27 09:34:00,
2017-06-27 02:39:00,56.7,51.0,29.94,West,270,0.0,-999.0,83,0.00,,,0.00,,2017-06-27 09:39:00,
2017-06-27 02:44:00,56.7,52.0,29.94,NNW,338,0.0,-999.0,85,0.00,,,0.00,,2017-06-27 09:44:00,
2017-06-27 02:49:00,56.7,52.0,29.94,WNW,293,0.0,-999.0,85,0.00,,,0.00,,2017-06-27 09:49:00,
2017-06-27 02:54:00,56.5,52.0,29.94,North,0,0.0,-999.0,85,0.00,,,0.00,,2017-06-27 09:54:00,
2017-06-27 02:59:00,56.5,51.0,29.94,SW,225,0.0,-999.0,83,0.00,,,0.00,,2017-06-27 09:59:00,
2017-06-27 03:04:00,56.3,51.0,29.93,NW,315,0.0,-999.0,83,0.00,,,0.00,,2017-06-27 10:04:00,
2017-06-27 03:09:00,56.0,51.0,29.93,NW,315,0.0,-999.0,85,0.00,,,0.00,,2017-06-27 10:09:00,
2017-06-27 03:14:00,56.0,51.0,29.93,NNW,338,0.0,-999.0,85,0.00,,,0.00,,2017-06-27 10:14:00,
2017-06-27 03:19:00,55.9,51.0,29.93,SSW,203,0.0,-999.0,85,0.00,,,0.00,,2017-06-27 10:19:00,
2017-06-27 03:24:00,55.9,51.0,29.93,North,0,0.0,-999.0,85,0.00,,,0.00,,2017-06-27 10:24:00,
2017-06-27 03:29:00,55.7,51.0,29.93,WNW,293,0.0,-999.0,85,0.00,,,0.00,,2017-06-27 10:29:00,
2017-06-27 03:34:00,55.5,51.0,29.93,West,270,0.0,-999.0,85,0.00,,,0.00,,2017-06-27 10:34:00,
2017-06-27 03:39:00,55.5,50.0,29.93,SSW,203,0.0,-999.0,83,0.00,,,0.00,,2017-06-27 10:39:00,
2017-06-27 03:44:00,55.3,50.0,29.94,WNW,293,0.0,-999.0,85,0.00,,,0.00,,2017-06-27 10:44:00,
2017-06-27 03:49:00,55.1,50.0,29.93,West,270,0.0,-999.0,85,0.00,,,0.00,,2017-06-27 10:49:00,
2017-06-27 03:54:00,55.1,51.0,29.93,North,0,0.0,-999.0,86,0.00,,,0.00,,2017-06-27 10:54:00,
2017-06-27 03:59:00,55.0,50.0,29.93,WNW,293,0.0,-999.0,86,0.00,,,0.00,,2017-06-27 10:59:00,
2017-06-27 04:04:00,54.9,51.0,29.93,NW,315,0.0,-999.0,86,0.00,,,0.00,,2017-06-27 11:04:00,
2017-06-27 04:09:00,54.7,50.0,29.93,North,0,0.0,-999.0,86,0.00,,,0.00,,2017-06-27 11:09:00,
2017-06-27 04:14:00,54.4,50.0,29.94,North,0,1.0,-999.0,86,0.00,,,0.00,,2017-06-27 11:14:00,
2017-06-27 04:19:00,54.2,50.0,29.93,North,0,0.0,-999.0,88,0.00,,,0.00,,2017-06-27 11:19:00,
2017-06-27 04:24:00,54.4,50.0,29.93,North,0,0.0,-999.0,86,0.00,,,0.00,,2017-06-27 11:24:00,
2017-06-27 04:29:00,54.4,50.0,29.93,West,270,0.0,-999.0,86,0.00,,,0.00,,2017-06-27 11:29:00,
2017-06-27 04:34:00,54.2,50.0,29.93,West,270,0.0,-999.0,86,0.00,,,0.00,,2017-06-27 11:34:00,
2017-06-27 04:39:00,54.2,50.0,29.93,West,270,0.0,-999.0,86,0.00,,,0.00,,2017-06-27 11:39:00,
2017-06-27 04:44:00,54.0,50.0,29.93,SSE,158,0.0,-999.0,86,0.00,,,0.00,,2017-06-27 11:44:00,
2017-06-27 04:49:00,54.0,50.0,29.93,NW,315,0.0,-999.0,86,0.00,,,0.00,,2017-06-27 11:49:00,
2017-06-27 04:54:00,53.8,50.0,29.93,NNW,338,0.0,-999.0,86,0.00,,,0.00,,2017-06-27 11:54:00,
2017-06-27 04:59:00,53.8,50.0,29.93,West,270,0.0,-999.0,86,0.00,,,0.00,,2017-06-27 11:59:00,
2017-06-27 05:04:00,53.5,49.0,29.93,ESE,113,0.0,-999.0,86,0.00,,,0.00,,2017-06-27 12:04:00,
2017-06-27 05:09:00,53.5,49.0,29.93,ENE,68,0.0,-999.0,86,0.00,,,0.00,,2017-06-27 12:09:00,
2017-06-27 05:14:00,53.4,49.0,29.93,West,270,0.0,-999.0,86,0.00,,,0.00,,2017-06-27 12:14:00,
2017-06-27 05:19:00,53.4,49.0,29.94,SSE,158,0.0,-999.0,86,0.00,,,0.00,,2017-06-27 12:19:00,
2017-06-27 05:24:00,53.4,49.0,29.93,SW,225,0.0,-999.0,86,0.00,,,0.00,,2017-06-27 12:24:00,
2017-06-27 05:29:00,53.2,49.0,29.93,South,180,0.0,-999.0,86,0.00,,,0.00,,2017-06-27 12:29:00,
2017-06-27 05:34:00,53.1,49.0,29.93,West,270,0.0,-999.0,88,0.00,,,0.00,,2017-06-27 12:34:00,
2017-06-27 05:39:00,52.8,49.0,29.94,NNW,338,0.0,-999.0,88,0.00,,,0.00,,2017-06-27 12:39:00,
2017-06-27 05:45:00,52.6,49.0,29.93,NNW,338,0.0,-999.0,88,0.00,,,0.00,,2017-06-27 12:45:00,
2017-06-27 05:50:00,52.6,49.0,29.93,North,0,0.0,-999.0,88,0.00,,,0.00,,2017-06-27 12:50:00,
2017-06-27 05:55:00,52.6,49.0,29.94,North,0,0.0,-999.0,88,0.00,,,0.00,,2017-06-27 12:55:00,
2017-06-27 06:00:00,52.6,49.0,29.94,NNE,23,0.0,-999.0,88,0.00,,,0.00,,2017-06-27 13:00:00,
2017-06-27 06:05:00,52.6,49.0,29.93,NNW,338,0.0,-999.0,88,0.00,,,0.00,,2017-06-27 13:05:00,
2017-06-27 06:10:00,52.6,49.0,29.94,NNE,23,1.0,-999.0,90,0.00,,,0.00,,2017-06-27 13:10:00,
2017-06-27 06:15:00,52.8,50.0,29.94,NW,315,1.0,-999.0,90,0.00,,,0.00,,2017-06-27 13:15:00,
2017-06-27 06:20:00,52.8,50.0,29.93,NNE,23,0.0,-999.0,90,0.00,,,0.00,,2017-06-27 13:20:00,
2017-06-27 06:25:00,52.8,49.0,29.93,NNE,23,0.0,-999.0,88,0.00,,,0.00,,2017-06-27 13:25:00,
2017-06-27 06:30:00,52.8,49.0,29.93,NNW,338,0.0,-999.0,88,0.00,,,0.00,,2017-06-27 13:30:00,
2017-06-27 06:35:00,52.8,49.0,29.93,North,0,0.0,-999.0,88,0.00,,,0.00,,2017-06-27 13:35:00,
2017-06-27 06:39:00,52.8,49.0,29.94,North,0,0.0,-999.0,88,0.00,,,0.00,,2017-06-27 13:39:00,
2017-06-27 06:44:00,52.8,49.0,29.94,NNW,338,0.0,-999.0,88,0.00,,,0.00,,2017-06-27 13:44:00,
2017-06-27 06:49:00,52.8,49.0,29.94,NW,315,0.0,-999.0,88,0.00,,,0.00,,2017-06-27 13:49:00,
2017-06-27 06:54:00,52.8,49.0,29.94,WNW,293,0.0,-999.0,88,0.00,,,0.00,,2017-06-27 13:54:00,
2017-06-27 06:59:00,52.8,49.0,29.94,NNE,23,0.0,-999.0,88,0.00,,,0.00,,2017-06-27 13:59:00,
2017-06-27 07:04:00,52.8,49.0,29.94,North,0,0.0,-999.0,88,0.00,,,0.00,,2017-06-27 14:04:00,
2017-06-27 07:09:00,53.1,49.0,29.93,West,270,0.0,-999.0,88,0.00,,,0.00,,2017-06-27 14:09:00,
2017-06-27 07:14:00,53.2,49.0,29.93,NNW,338,0.0,-999.0,88,0.00,,,0.00,,2017-06-27 14:14:00,
2017-06-27 07:19:00,53.4,49.0,29.94,NNE,23,0.0,-999.0,88,0.00,,,0.00,,2017-06-27 14:19:00,
2017-06-27 07:24:00,53.8,50.0,29.93,North,0,0.0,-999.0,88,0.00,,,0.00,,2017-06-27 14:24:00,
2017-06-27 07:29:00,54.0,50.0,29.94,NNE,23,0.0,-999.0,88,0.00,,,0.00,,2017-06-27 14:29:00,
2017-06-27 07:34:00,54.7,50.0,29.93,NNE,23,0.0,-999.0,86,0.00,,,0.00,,2017-06-27 14:34:00,
2017-06-27 07:39:00,55.0,50.0,29.94,NNE,23,0.0,-999.0,86,0.00,,,0.00,,2017-06-27 14:39:00,
2017-06-27 07:44:00,55.5,51.0,29.94,NE,45,0.0,-999.0,86,0.00,,,0.00,,2017-06-27 14:44:00,
2017-06-27 07:49:00,56.0,51.0,29.94,NW,315,0.0,-999.0,86,0.00,,,0.00,,2017-06-27 14:49:00,
2017-06-27 07:54:00,56.7,52.0,29.94,North,0,0.0,-999.0,85,0.00,,,0.00,,2017-06-27 14:54:00,
2017-06-27 07:59:00,57.3,52.0,29.94,NE,45,0.0,-999.0,83,0.00,,,0.00,,2017-06-27 14:59:00,
2017-06-27 08:04:00,58.0,52.0,29.94,NNE,23,1.0,-999.0,81,0.00,,,0.00,,2017-06-27 15:04:00,
2017-06-27 08:09:00,58.8,52.0,29.94,NNE,23,1.0,-999.0,80,0.00,,,0.00,,2017-06-27 15:09:00,
2017-06-27 08:14:00,59.3,52.0,29.93,NE,45,0.0,-999.0,79,0.00,,,0.00,,2017-06-27 15:14:00,
2017-06-27 08:19:00,60.0,52.0,29.93,NE,45,0.0,-999.0,75,0.00,,,0.00,,2017-06-27 15:19:00,
2017-06-27 08:24:00,60.5,51.0,29.93,East,90,0.0,-999.0,73,0.00,,,0.00,,2017-06-27 15:24:00,
2017-06-27 08:29:00,61.3,51.0,29.93,East,90,0.0,-999.0,70,0.00,,,0.00,,2017-06-27 15:29:00,
2017-06-27 08:34:00,61.9,52.0,29.93,East,90,0.0,-999.0,70,0.00,,,0.00,,2017-06-27 15:34:00,
2017-06-27 08:39:00,62.5,52.0,29.94,NE,45,0.0,-999.0,69,0.00,,,0.00,,2017-06-27 15:39:00,
2017-06-27 08:44:00,63.0,52.0,29.93,NE,45,0.0,-999.0,69,0.00,,,0.00,,2017-06-27 15:44:00,
2017-06-27 08:49:00,63.6,52.0,29.93,ENE,68,0.0,-999.0,65,0.00,,,0.00,,2017-06-27 15:49:00,
2017-06-27 08:54:00,64.6,49.0,29.93,NE,45,0.0,-999.0,59,0.00,,,0.00,,2017-06-27 15:54:00,
2017-06-27 08:59:00,65.0,49.0,29.93,NE,45,0.0,-999.0,58,0.00,,,0.00,,2017-06-27 15:59:00,
2017-06-27 09:04:00,65.8,50.0,29.93,NE,45,0.0,-999.0,56,0.00,,,0.00,,2017-06-27 16:04:00,
2017-06-27 09:09:00,66.5,50.0,29.94,NE,45,0.0,-999.0,55,0.00,,,0.00,,2017-06-27 16:09:00,
2017-06-27 09:14:00,67.1,49.0,29.93,NNE,23,0.0,-999.0,54,0.00,,,0.00,,2017-06-27 16:14:00,
2017-06-27 09:19:00,67.8,50.0,29.94,SE,135,0.0,-999.0,53,0.00,,,0.00,,2017-06-27 16:19:00,
2017-06-27 09:24:00,68.0,50.0,29.93,North,0,0.0,-999.0,53,0.00,,,0.00,,2017-06-27 16:24:00,
2017-06-27 09:29:00,68.6,50.0,29.94,WSW,248,0.0,-999.0,53,0.00,,,0.00,,2017-06-27 16:29:00,
2017-06-27 09:34:00,69.6,49.0,29.94,West,270,0.0,-999.0,48,0.00,,,0.00,,2017-06-27 16:34:00,
2017-06-27 09:39:00,70.1,47.0,29.95,West,270,0.0,-999.0,44,0.00,,,0.00,,2017-06-27 16:39:00,
2017-06-27 09:44:00,70.9,49.0,29.94,West,270,0.0,-999.0,45,0.00,,,0.00,,2017-06-27 16:44:00,
2017-06-27 09:49:00,71.5,50.0,29.95,NE,45,0.0,-999.0,48,0.00,,,0.00,,2017-06-27 16:49:00,
2017-06-27 09:54:00,72.8,50.0,29.95,NNE,23,0.0,-999.0,45,0.00,,,0.00,,2017-06-27 16:54:00,
2017-06-27 09:59:00,74.4,51.0,29.94,South,180,0.0,-999.0,44,0.00,,,0.00,,2017-06-27 16:59:00,
2017-06-27 10:04:00,75.3,51.0,29.94,SE,135,0.0,-999.0,44,0.00,,,0.00,,2017-06-27 17:04:00,
2017-06-27 10:09:00,76.5,51.0,29.94,East,90,2.0,-999.0,40,0.00,,,0.00,,2017-06-27 17:09:00,
2017-06-27 10:15:00,77.6,51.0,29.94,ESE,113,1.0,-999.0,40,0.00,,,0.00,,2017-06-27 17:15:00,
2017-06-27 10:20:00,78.4,51.0,29.94,West,270,0.0,-999.0,39,0.00,,,0.00,,2017-06-27 17:20:00,
2017-06-27 10:25:00,81.3,51.0,29.93,SE,135,0.0,-999.0,35,0.00,,,0.00,,2017-06-27 17:25:00,
2017-06-27 10:30:00,81.0,52.0,29.93,SSE,158,0.0,-999.0,37,0.00,,,0.00,,2017-06-27 17:30:00,
2017-06-27 10:35:00,81.3,51.0,29.93,ESE,113,2.0,-999.0,35,0.00,,,0.00,,2017-06-27 17:35:00,
2017-06-27 10:40:00,81.9,52.0,29.94,West,270,0.0,-999.0,35,0.00,,,0.00,,2017-06-27 17:40:00,
2017-06-27 10:45:00,81.9,52.0,29.93,West,270,1.0,-999.0,35,0.00,,,0.00,,2017-06-27 17:45:00,
2017-06-27 10:50:00,82.8,53.0,29.93,SSW,203,0.0,-999.0,35,0.00,,,0.00,,2017-06-27 17:50:00,
2017-06-27 10:55:00,82.8,53.0,29.93,SSW,203,0.0,-999.0,35,0.00,,,0.00,,2017-06-27 17:55:00,
2017-06-27 11:00:00,83.8,53.0,29.93,ESE,113,1.0,-999.0,35,0.00,,,0.00,,2017-06-27 18:00:00,
2017-06-27 11:05:00,83.9,53.0,29.93,SSE,158,1.0,-999.0,35,0.00,,,0.00,,2017-06-27 18:05:00,
2017-06-27 11:11:00,84.4,53.0,29.93,SW,225,0.0,-999.0,35,0.00,,,0.00,,2017-06-27 18:11:00,
2017-06-27 11:17:00,84.6,53.0,29.92,South,180,1.0,-999.0,35,0.00,,,0.00,,2017-06-27 18:17:00,
2017-06-27 11:22:00,83.9,54.0,29.93,East,90,2.0,-999.0,35,0.00,,,0.00,,2017-06-27 18:22:00,
2017-06-27 11:28:00,84.4,53.0,29.93,WSW,248,2.0,-999.0,35,0.00,,,0.00,,2017-06-27 18:28:00,
2017-06-27 11:34:00,83.5,55.0,29.93,West,270,4.0,-999.0,39,0.00,,,0.00,,2017-06-27 18:34:00,
2017-06-27 11:39:00,82.8,56.0,29.93,SSE,158,2.0,-999.0,40,0.00,,,0.00,,2017-06-27 18:39:00,
2017-06-27 11:45:00,82.8,56.0,29.93,SW,225,1.0,-999.0,40,0.00,,,0.00,,2017-06-27 18:45:00,
2017-06-27 11:50:00,82.8,56.0,29.93,West,270,0.0,-999.0,40,0.00,,,0.00,,2017-06-27 18:50:00,
2017-06-27 11:56:00,82.8,56.0,29.93,West,270,2.0,-999.0,40,0.00,,,0.00,,2017-06-27 18:56:00,
2017-06-27 12:02:00,82.8,56.0,29.93,SSE,158,1.0,-999.0,40,0.00,,,0.00,,2017-06-27 19:02:00,
2017-06-27 12:07:00,83.0,56.0,29.93,SSW,203,2.0,-999.0,40,0.00,,,0.00,,2017-06-27 19:07:00,
2017-06-27 12:13:00,82.6,55.0,29.93,SE,135,0.0,-999.0,40,0.00,,,0.00,,2017-06-27 19:13:00,
2017-06-27 12:19:00,82.8,56.0,29.93,SE,135,2.0,-999.0,40,0.00,,,0.00,,2017-06-27 19:19:00,
2017-06-27 12:24:00,82.8,56.0,29.92,SE,135,1.0,-999.0,40,0.00,,,0.00,,2017-06-27 19:24:00,
2017-06-27 12:30:00,83.2,57.0,29.93,SW,225,1.0,-999.0,40,0.00,,,0.00,,2017-06-27 19:30:00,
2017-06-27 12:35:00,83.6,56.0,29.93,ESE,113,0.0,-999.0,39,0.00,,,0.00,,2017-06-27 19:35:00,
2017-06-27 12:41:00,83.9,58.0,29.92,South,180,1.0,-999.0,41,0.00,,,0.00,,2017-06-27 19:41:00,
2017-06-27 12:47:00,84.6,57.0,29.92,SSW,203,1.0,-999.0,40,0.00,,,0.00,,2017-06-27 19:47:00,
2017-06-27 12:52:00,84.4,57.0,29.93,SW,225,0.0,-999.0,40,0.00,,,0.00,,2017-06-27 19:52:00,
2017-06-27 12:57:00,84.6,57.0,29.92,SSE,158,2.0,-999.0,40,0.00,,,0.00,,2017-06-27 19:57:00,
2017-06-27 13:02:00,83.9,56.0,29.93,West,270,2.0,-999.0,39,0.00,,,0.00,,2017-06-27 20:02:00,
2017-06-27 13:07:00,83.8,56.0,29.93,West,270,2.0,-999.0,39,0.00,,,0.00,,2017-06-27 20:07:00,
2017-06-27 13:12:00,83.9,56.0,29.92,West,270,3.0,-999.0,39,0.00,,,0.00,,2017-06-27 20:12:00,
2017-06-27 13:17:00,84.6,57.0,29.92,West,270,2.0,-999.0,39,0.00,,,0.00,,2017-06-27 20:17:00,
2017-06-27 13:22:00,85.5,56.0,29.92,SW,225,1.0,-999.0,37,0.00,,,0.00,,2017-06-27 20:22:00,
2017-06-27 13:27:00,86.4,57.0,29.92,ESE,113,2.0,-999.0,37,0.00,,,0.00,,2017-06-27 20:27:00,
2017-06-27 13:32:00,87.3,56.0,29.92,SSW,203,0.0,-999.0,35,0.00,,,0.00,,2017-06-27 20:32:00,
2017-06-27 13:37:00,88.5,56.0,29.92,WSW,248,2.0,-999.0,34,0.00,,,0.00,,2017-06-27 20:37:00,
2017-06-27 13:42:00,89.4,57.0,29.92,South,180,1.0,-999.0,34,0.00,,,0.00,,2017-06-27 20:42:00,
2017-06-27 13:47:00,90.0,55.0,29.92,West,270,4.0,-999.0,30,0.00,,,0.00,,2017-06-27 20:47:00,
2017-06-27 13:52:00,91.1,57.0,29.92,SSE,158,2.0,-999.0,31,0.00,,,0.00,,2017-06-27 20:52:00,
2017-06-27 13:57:00,90.9,56.0,29.91,East,90,3.0,-999.0,30,0.00,,,0.00,,2017-06-27 20:57:00,
2017-06-27 14:02:00,90.1,55.0,29.91,ESE,113,2.0,-999.0,30,0.00,,,0.00,,2017-06-27 21:02:00,
2017-06-27 14:07:00,91.1,55.0,29.91,South,180,2.0,-999.0,30,0.00,,,0.00,,2017-06-27 21:07:00,
2017-06-27 14:12:00,92.1,56.0,29.91,West,270,3.0,-999.0,30,0.00,,,0.00,,2017-06-27 21:12:00,
2017-06-27 14:17:00,92.6,56.0,29.91,South,180,4.0,-999.0,30,0.00,,,0.00,,2017-06-27 21:17:00,
2017-06-27 14:22:00,93.9,56.0,29.91,SSE,158,3.0,-999.0,29,0.00,,,0.00,,2017-06-27 21:22:00,
2017-06-27 14:27:00,93.4,55.0,29.91,SW,225,1.0,-999.0,27,0.00,,,0.00,,2017-06-27 21:27:00,
2017-06-27 14:33:00,94.3,54.0,29.91,South,180,1.0,-999.0,25,0.00,,,0.00,,2017-06-27 21:33:00,
2017-06-27 14:38:00,94.8,54.0,29.91,West,270,2.0,-999.0,25,0.00,,,0.00,,2017-06-27 21:38:00,
2017-06-27 14:43:00,94.3,56.0,29.90,West,270,1.0,-999.0,27,0.00,,,0.00,,2017-06-27 21:43:00,
2017-06-27 14:48:00,93.5,53.0,29.90,SW,225,2.0,-999.0,25,0.00,,,0.00,,2017-06-27 21:48:00,
2017-06-27 14:53:00,93.6,54.0,29.90,WSW,248,2.0,-999.0,27,0.00,,,0.00,,2017-06-27 21:53:00,
2017-06-27 14:58:00,92.8,55.0,29.90,SW,225,2.0,-999.0,29,0.00,,,0.00,,2017-06-27 21:58:00,
2017-06-27 15:03:00,91.8,55.0,29.90,SSW,203,2.0,-999.0,29,0.00,,,0.00,,2017-06-27 22:03:00,
2017-06-27 15:08:00,90.5,51.0,29.90,South,180,1.0,-999.0,27,0.00,,,0.00,,2017-06-27 22:08:00,
2017-06-27 15:13:00,91.4,53.0,29.90,West,270,3.0,-999.0,27,0.00,,,0.00,,2017-06-27 22:13:00,
2017-06-27 15:18:00,91.1,53.0,29.89,South,180,2.0,-999.0,27,0.00,,,0.00,,2017-06-27 22:18:00,
2017-06-27 15:23:00,90.3,53.0,29.89,West,270,2.0,-999.0,29,0.00,,,0.00,,2017-06-27 22:23:00,
2017-06-27 15:28:00,90.0,55.0,29.89,SW,225,0.0,-999.0,30,0.00,,,0.00,,2017-06-27 22:28:00,
2017-06-27 15:33:00,90.0,54.0,29.89,West,270,2.0,-999.0,30,0.00,,,0.00,,2017-06-27 22:33:00,
2017-06-27 15:38:00,89.4,53.0,29.89,WNW,293,1.0,-999.0,30,0.00,,,0.00,,2017-06-27 22:38:00,
2017-06-27 15:43:00,89.8,54.0,29.89,South,180,2.0,-999.0,30,0.00,,,0.00,,2017-06-27 22:43:00,
2017-06-27 15:48:00,89.4,53.0,29.88,SSE,158,2.0,-999.0,30,0.00,,,0.00,,2017-06-27 22:48:00,
2017-06-27 15:53:00,89.4,53.0,29.88,SW,225,3.0,-999.0,30,0.00,,,0.00,,2017-06-27 22:53:00,
2017-06-27 15:58:00,88.5,54.0,29.89,WNW,293,1.0,-999.0,30,0.00,,,0.00,,2017-06-27 22:58:00,
2017-06-27 16:03:00,89.0,55.0,29.88,West,270,3.0,-999.0,31,0.00,,,0.00,,2017-06-27 23:03:00,
2017-06-27 16:08:00,89.0,55.0,29.88,SSE,158,2.0,-999.0,31,0.00,,,0.00,,2017-06-27 23:08:00,
2017-06-27 16:13:00,89.0,56.0,29.88,NE,45,2.0,-999.0,32,0.00,,,0.00,,2017-06-27 23:13:00,
2017-06-27 16:18:00,89.0,54.0,29.88,WSW,248,4.0,-999.0,30,0.00,,,0.00,,2017-06-27 23:18:00,
2017-06-27 16:23:00,88.5,54.0,29.88,SSW,203,1.0,-999.0,31,0.00,,,0.00,,2017-06-27 23:23:00,
2017-06-27 16:28:00,88.6,55.0,29.88,SSW,203,1.0,-999.0,31,0.00,,,0.00,,2017-06-27 23:28:00,
2017-06-27 16:33:00,88.6,54.0,29.88,SE,135,2.0,-999.0,30,0.00,,,0.00,,2017-06-27 23:33:00,
2017-06-27 16:38:00,89.0,54.0,29.88,NNE,23,0.0,-999.0,30,0.00,,,0.00,,2017-06-27 23:38:00,
2017-06-27 16:44:00,88.9,54.0,29.87,SE,135,1.0,-999.0,30,0.00,,,0.00,,2017-06-27 23:44:00,
2017-06-27 16:49:00,88.6,55.0,29.88,West,270,2.0,-999.0,31,0.00,,,0.00,,2017-06-27 23:49:00,
2017-06-27 16:54:00,88.1,54.0,29.87,SW,225,1.0,-999.0,31,0.00,,,0.00,,2017-06-27 23:54:00,
2017-06-27 16:59:00,88.2,54.0,29.87,ESE,113,4.0,-999.0,31,0.00,,,0.00,,2017-06-27 23:59:00,
2017-06-27 17:04:00,88.6,54.0,29.87,SE,135,2.0,-999.0,30,0.00,,,0.00,,2017-06-28 00:04:00,
2017-06-27 17:09:00,88.6,54.0,29.87,ESE,113,3.0,-999.0,30,0.00,,,0.00,,2017-06-28 00:09:00,
2017-06-27 17:14:00,88.5,54.0,29.87,North,0,1.0,-999.0,30,0.00,,,0.00,,2017-06-28 00:14:00,
2017-06-27 17:19:00,88.0,53.0,29.87,West,270,2.0,-999.0,30,0.00,,,0.00,,2017-06-28 00:19:00,
2017-06-27 17:24:00,87.6,54.0,29.87,ESE,113,2.0,-999.0,32,0.00,,,0.00,,2017-06-28 00:24:00,
2017-06-27 17:29:00,87.8,55.0,29.87,WSW,248,1.0,-999.0,32,0.00,,,0.00,,2017-06-28 00:29:00,
2017-06-27 17:34:00,87.8,55.0,29.87,WNW,293,2.0,-999.0,32,0.00,,,0.00,,2017-06-28 00:34:00,
2017-06-27 17:39:00,87.6,54.0,29.87,SSW,203,2.0,-999.0,32,0.00,,,0.00,,2017-06-28 00:39:00,
2017-06-27 17:45:00,87.6,54.0,29.87,SW,225,2.0,-999.0,32,0.00,,,0.00,,2017-06-28 00:45:00,
2017-06-27 17:50:00,87.8,54.0,29.87,SW,225,1.0,-999.0,31,0.00,,,0.00,,2017-06-28 00:50:00,
2017-06-27 17:56:00,87.6,54.0,29.86,SSW,203,2.0,-999.0,31,0.00,,,0.00,,2017-06-28 00:56:00,
2017-06-27 18:01:00,87.8,54.0,29.86,SW,225,0.0,-999.0,31,0.00,,,0.00,,2017-06-28 01:01:00,
2017-06-27 18:07:00,87.8,53.0,29.86,ESE,113,1.0,-999.0,30,0.00,,,0.00,,2017-06-28 01:07:00,
2017-06-27 18:13:00,87.6,53.0,29.86,West,270,3.0,-999.0,30,0.00,,,0.00,,2017-06-28 01:13:00,
2017-06-27 18:18:00,87.6,54.0,29.86,SE,135,0.0,-999.0,31,0.00,,,0.00,,2017-06-28 01:18:00,
2017-06-27 18:24:00,87.3,53.0,29.85,SW,225,1.0,-999.0,30,0.00,,,0.00,,2017-06-28 01:24:00,
2017-06-27 18:30:00,87.3,53.0,29.86,West,270,0.0,-999.0,31,0.00,,,0.00,,2017-06-28 01:30:00,
2017-06-27 18:36:00,87.1,54.0,29.86,WSW,248,1.0,-999.0,32,0.00,,,0.00,,2017-06-28 01:36:00,
2017-06-27 18:41:00,87.1,54.0,29.85,SSW,203,1.0,-999.0,32,0.00,,,0.00,,2017-06-28 01:41:00,
2017-06-27 18:46:00,86.9,55.0,29.85,South,180,1.0,-999.0,35,0.00,,,0.00,,2017-06-28 01:46:00,
2017-06-27 18:52:00,86.4,55.0,29.85,SW,225,1.0,-999.0,35,0.00,,,0.00,,2017-06-28 01:52:00,
2017-06-27 18:57:00,86.4,54.0,29.85,SSW,203,0.0,-999.0,34,0.00,,,0.00,,2017-06-28 01:57:00,
2017-06-27 19:00:00,86.4,56.0,29.85,SSW,203,0.0,-999.0,35,0.00,,,0.00,,2017-06-28 02:00:00,
2017-06-27 19:05:00,85.1,55.0,29.85,SSW,203,0.0,-999.0,35,0.00,,,0.00,,2017-06-28 02:05:00,
2017-06-27 19:10:00,85.3,56.0,29.85,West,270,0.0,-999.0,37,0.00,,,0.00,,2017-06-28 02:10:00,
2017-06-27 19:15:00,84.6,56.0,29.85,WSW,248,0.0,-999.0,37,0.00,,,0.00,,2017-06-28 02:15:00,
2017-06-27 19:20:00,83.6,55.0,29.85,West,270,0.0,-999.0,37,0.00,,,0.00,,2017-06-28 02:20:00,
2017-06-27 19:26:00,83.2,55.0,29.85,West,270,0.0,-999.0,39,0.00,,,0.00,,2017-06-28 02:26:00,
2017-06-27 19:31:00,83.0,54.0,29.86,NW,315,0.0,-999.0,37,0.00,,,0.00,,2017-06-28 02:31:00,
2017-06-27 19:37:00,81.9,55.0,29.87,NNE,23,0.0,-999.0,40,0.00,,,0.00,,2017-06-28 02:37:00,
2017-06-27 19:42:00,81.4,55.0,29.87,WNW,293,0.0,-999.0,40,0.00,,,0.00,,2017-06-28 02:42:00,
2017-06-27 19:47:00,80.7,56.0,29.86,South,180,0.0,-999.0,43,0.00,,,0.00,,2017-06-28 02:47:00,
2017-06-27 19:52:00,80.1,56.0,29.86,West,270,0.0,-999.0,44,0.00,,,0.00,,2017-06-28 02:52:00,
2017-06-27 19:57:00,79.4,56.0,29.87,West,270,0.0,-999.0,45,0.00,,,0.00,,2017-06-28 02:57:00,